Cizur Mayor, Spain
Current Conditions -  °F | °C
As of 2:30 PM on Thursday 30 Oct 2014 (Local Time) from LEPP Reporting Station
Clear Clear  
Wind Chill: 68°   Ceiling: Unl
Heat Index: 68°   Visibility: 6mi
Dew Point: 57°   Wind: 3mph
Humidity: 68%   Direction: 160°SSE
Pressure: 30.18"   Gusts: NA
Location:  42.79°N, 1.69°W
Report Text: LEPP 301330Z 16003KT 080V190 9000 NSC 20/14 Q1022
Loading
Personal Weather Stations






























Interactive Weather Map
Tropical Storm Tracking
New forecast layout! Learn more

10-Day Weather Forecast

Advertisements
Track Severe Weather on mobile